QIKCOM-1 (42983 NORAD) Tracking and Keplerian Element Data

This shows tracking and keplerian element data for the satellite.

Feedback or suggestion? Click here.




ElementValue
Catalog42983
NameQIKCOM-1
Epoch Orbit7941
Epoch Day80.3838205
Epoch Year2019
RAAN68.3792
Inclination51.6398
Eccentricity0.000434
Argument of Perigee142.0256
Mean Anonmoly218.1043
Mean Motion15.58165931
Decay Rate3.165E-05
L11 42983U 98067NF 19080.38382050 .00003165 00000-0 47725-4 0 9997
L22 42983 51.6398 68.3792 0004340 142.0256 218.1043 15.58165931 79410

Live tracking and technical data element details for QIKCOM-1 (NORAD 42983). QIKCOM-1 can be tracked NOW for your location showing map with azimuth and elevation plus other details from your city location.

Track the satellite on the map from your city or location and see movement details for azimuth, elevation, latitude, longitude, range, height, and movement on the map or in text.







IsCatalogInMostPopularTable: catalog: 42983, numindb: 196
Update: records affected: 1



GetName: 42983 QIKCOM-1

Hit Count: updated at: Sat, 23 Mar 2019 02:07:33 GMT